Location: La Comballaz
(46.3780°N, 7.0817°E)
Time: 06:34:25
(UTC+00:00)

X-37B - Visible Passes

Search period start: 07 December 2021 00:00
Search period end: 17 December 2021 00:00
Orbit: 330 x 341 km, 45.0° (Epoch: 20 November)

Date Brightness Start Highest point End Pass type
(mag) Time Alt. Az. Time Alt. Az. Time Alt. Az.
07 Dec 2.4 17:15:49 10° SSW 17:17:47 17° SSE 17:18:08 17° SE visible
08 Dec 1.6 17:35:23 10° SW 17:37:44 31° S 17:37:44 31° S visible
09 Dec 2.6 16:21:15 10° SSW 16:23:13 17° SSE 16:25:10 10° ESE visible
09 Dec 2.0 17:55:30 10° WSW 17:57:18 32° SW 17:57:18 32° SW visible
10 Dec 1.6 16:40:49 10° SW 16:43:25 31° SSE 16:45:37 13° E visible
10 Dec 3.2 18:15:51 10° W 18:16:51 19° WSW 18:16:51 19° WSW visible
11 Dec 0.8 17:00:56 10° WSW 17:03:44 51° SSE 17:05:09 24° ESE visible
11 Dec 4.1 18:36:16 10° W 18:36:23 11° W 18:36:23 11° W visible
12 Dec 0.4 17:21:16 10° W 17:24:08 67° S 17:24:42 49° ESE visible
13 Dec 0.8 17:41:42 10° W 17:44:16 58° SW 17:44:16 58° SW visible
14 Dec 0.6 16:26:42 10° W 16:29:34 67° S 16:32:25 10° E visible
14 Dec 2.3 18:02:09 10° W 18:03:54 29° WSW 18:03:54 29° WSW visible
15 Dec 0.6 16:47:07 10° W 16:49:58 64° S 16:52:22 14° ESE visible
15 Dec 3.5 18:22:44 10° W 18:23:36 16° WSW 18:23:36 16° WSW visible
16 Dec 1.2 17:07:34 10° W 17:10:21 45° SSW 17:12:10 18° SE visible
